Location: *
(50.9167°S, 179.4000°W)
Time: 04:18:16
(UTC+00:00)

ATLAS 2AS CENTAUR R/B - Pass Details

Date: 18 June 2024
Orbit: 1019 x 1192 km, 63.7° (Epoch: 21 July)

Event Time Altitude Azimuth Distance (km) Brightness Sun altitude
Exits shadow 15:33:13 27° 157° (SSE) 2,036 4.3 -40.7°
Drops below altitude 10° 15:36:51 10° 135° (SE) 3,048 5.6 -40.1°
Sets 15:39:52 0° 127° (SE) 4,035 6.5 -39.7°
